�������l�o���
Date,Time,MP-1(��Sv/h),MP-2(��Sv/h),MP-3(��Sv/h),MP-4(��Sv/h),MP-5(��Sv/h),MP-6(��Sv/h),MP-7(��Sv/h),MP-8(��Sv/h),����,����(m/s),���J
2022/07/20,00:00,0.588,0.839,0.537,1.004,0.715,0.342,0.591,0.556,��쓌,0.9,��
2022/07/20,00:10,0.589,0.840,0.539,1.003,0.714,0.342,0.592,0.557,��,1.1,��
2022/07/20,00:20,0.587,0.839,0.538,1.003,0.713,0.342,0.590,0.557,-,CALM,��
2022/07/20,00:30,0.590,0.840,0.538,1.005,0.715,0.342,0.590,0.557,��쐼,0.9,�L
2022/07/20,00:40,0.589,0.842,0.540,1.003,0.714,0.343,0.590,0.556,��쓌,1.2,�L
2022/07/20,00:50,0.589,0.842,0.539,1.006,0.713,0.342,0.592,0.556,��,2.0,��
2022/07/20,01:00,0.590,0.841,0.539,1.005,0.713,0.344,0.591,0.555,��,3.5,��
2022/07/20,01:10,0.590,0.840,0.537,1.003,0.713,0.343,0.591,0.556,��,2.3,�L
2022/07/20,01:20,0.590,0.839,0.538,1.006,0.715,0.344,0.591,0.555,��,1.4,�L
2022/07/20,01:30,0.589,0.841,0.538,1.007,0.714,0.343,0.591,0.555,-,CALM,��
2022/07/20,01:40,0.590,0.842,0.538,1.005,0.715,0.343,0.590,0.557,�쓌,0.8,��
2022/07/20,01:50,0.590,0.842,0.541,1.006,0.712,0.343,0.590,0.557,��,2.0,��
2022/07/20,02:00,0.589,0.841,0.539,1.004,0.713,0.343,0.592,0.556,��,2.0,��
2022/07/20,02:10,0.589,0.841,0.538,1.006,0.713,0.344,0.591,0.555,��,3.2,��
2022/07/20,02:20,0.590,0.843,0.539,1.005,0.712,0.344,0.592,0.556,��,3.6,��
2022/07/20,02:30,0.587,0.841,0.538,1.006,0.715,0.343,0.592,0.556,��쓌,2.9,��
2022/07/20,02:40,0.590,0.841,0.536,1.006,0.714,0.342,0.592,0.556,��쓌,3.4,��
2022/07/20,02:50,0.590,0.842,0.537,1.004,0.712,0.343,0.592,0.556,��,2.3,��
2022/07/20,03:00,0.589,0.840,0.538,1.005,0.713,0.343,0.591,0.556,��,4.0,��
2022/07/20,03:10,0.590,0.840,0.538,1.005,0.714,0.343,0.592,0.556,��,3.6,��
2022/07/20,03:20,0.589,0.840,0.537,1.004,0.715,0.342,0.593,0.557,��,2.3,��
2022/07/20,03:30,0.588,0.842,0.539,1.003,0.715,0.343,0.591,0.556,��,2.5,��
2022/07/20,03:40,0.590,0.841,0.538,1.004,0.714,0.344,0.591,0.557,��,2.3,��
2022/07/20,03:50,0.590,0.840,0.539,1.004,0.714,0.343,0.592,0.557,��,1.9,��
2022/07/20,04:00,0.590,0.841,0.538,1.005,0.714,0.343,0.594,0.557,��,0.9,��
2022/07/20,04:10,0.589,0.842,0.538,1.003,0.713,0.344,0.592,0.557,�k��,0.9,��
2022/07/20,04:20,0.590,0.844,0.538,1.005,0.714,0.344,0.594,0.556,�k,2.6,��
2022/07/20,04:30,0.588,0.839,0.538,1.003,0.713,0.345,0.591,0.557,�k�k��,2.9,��
2022/07/20,04:40,0.590,0.840,0.539,1.004,0.713,0.343,0.591,0.556,���k��,1.7,��
2022/07/20,04:50,0.588,0.841,0.538,1.004,0.715,0.343,0.592,0.556,���k��,2.8,��
2022/07/20,05:00,0.589,0.840,0.537,1.006,0.713,0.343,0.592,0.556,�k�k��,3.1,��
2022/07/20,05:10,0.589,0.839,0.537,1.004,0.714,0.343,0.593,0.557,���k��,1.9,��
2022/07/20,05:20,0.589,0.840,0.540,1.005,0.717,0.344,0.591,0.558,���k��,4.5,��
2022/07/20,05:30,0.589,0.841,0.539,1.005,0.715,0.343,0.592,0.557,���k��,6.8,��
2022/07/20,05:40,0.591,0.842,0.539,1.004,0.713,0.345,0.592,0.557,���k��,6.5,��
2022/07/20,05:50,0.590,0.842,0.538,1.004,0.711,0.344,0.592,0.558,�k��,5.1,��
2022/07/20,06:00,0.591,0.841,0.536,1.005,0.714,0.343,0.594,0.557,�k��,4.5,��
2022/07/20,06:10,0.590,0.842,0.539,1.005,0.715,0.344,0.593,0.556,�k��,2.6,��
2022/07/20,06:20,0.591,0.841,0.539,1.002,0.714,0.344,0.593,0.557,���k��,3.1,��
2022/07/20,06:30,0.591,0.842,0.538,1.006,0.715,0.343,0.593,0.557,��,3.3,��
2022/07/20,06:40,0.590,0.839,0.539,1.004,0.713,0.343,0.594,0.557,���k��,2.2,��
2022/07/20,06:50,0.592,0.841,0.538,1.004,0.715,0.343,0.593,0.556,���k��,1.7,��
2022/07/20,07:00,0.591,0.838,0.539,1.005,0.714,0.342,0.592,0.557,���k��,4.0,��
2022/07/20,07:10,0.589,0.839,0.538,1.005,0.715,0.343,0.594,0.558,�k��,4.6,��
2022/07/20,07:20,0.593,0.841,0.539,1.005,0.715,0.343,0.593,0.557,�k��,4.2,��
2022/07/20,07:30,0.592,0.838,0.540,1.006,0.714,0.343,0.593,0.556,�k��,4.4,��
2022/07/20,07:40,0.592,0.840,0.540,1.005,0.714,0.343,0.591,0.556,���k��,6.4,��
2022/07/20,07:50,0.593,0.841,0.540,1.003,0.713,0.344,0.593,0.556,�k��,6.1,��
2022/07/20,08:00,0.594,0.841,0.538,1.006,0.712,0.344,0.592,0.554,�k��,5.0,��
2022/07/20,08:10,0.594,0.841,0.539,1.006,0.715,0.346,0.594,0.555,�k��,4.2,��
2022/07/20,08:20,0.592,0.838,0.540,1.007,0.713,0.344,0.594,0.555,�k�k��,3.6,��
2022/07/20,08:30,0.593,0.841,0.538,1.005,0.714,0.343,0.594,0.554,�k,5.8,��
2022/07/20,08:40,0.593,0.838,0.537,1.009,0.715,0.344,0.593,0.555,�k,4.3,��
2022/07/20,08:50,0.592,0.840,0.536,1.007,0.714,0.344,0.593,0.554,�k��,3.8,��
2022/07/20,09:00,0.592,0.839,0.536,1.007,0.715,0.343,0.593,0.555,�k�k��,4.5,��
2022/07/20,09:10,0.591,0.840,0.539,1.009,0.715,0.344,0.594,0.556,�k,4.4,��
2022/07/20,09:20,0.591,0.840,0.538,1.007,0.716,0.344,0.594,0.557,�k�k��,4.5,��
2022/07/20,09:30,0.592,0.841,0.539,1.006,0.715,0.345,0.595,0.558,�k�k��,3.8,��
2022/07/20,09:40,0.593,0.843,0.540,1.007,0.716,0.342,0.594,0.555,�k�k��,3.9,��
2022/07/20,09:50,0.590,0.842,0.540,1.006,0.717,0.343,0.593,0.554,�k,4.4,��
2022/07/20,10:00,0.592,0.843,0.539,1.007,0.715,0.343,0.594,0.558,�k�k��,5.0,��
2022/07/20,10:10,0.594,0.840,0.538,1.007,0.717,0.344,0.593,0.556,�k�k��,4.9,��
2022/07/20,10:20,0.594,0.837,0.539,1.008,0.715,0.344,0.592,0.556,�k�k��,5.6,��
2022/07/20,10:30,0.595,0.840,0.539,1.009,0.715,0.344,0.591,0.557,�k�k��,4.9,��
2022/07/20,10:40,0.594,0.840,0.541,1.010,0.716,0.344,0.592,0.556,�k��,5.3,��
2022/07/20,10:50,0.596,0.841,0.542,1.007,0.717,0.344,0.593,0.557,�k�k��,7.6,��
2022/07/20,11:00,0.597,0.844,0.541,1.011,0.717,0.344,0.593,0.557,�k��,7.0,��
2022/07/20,11:10,0.595,0.844,0.542,1.008,0.718,0.344,0.592,0.557,�k�k��,3.3,��
2022/07/20,11:20,0.595,0.842,0.541,1.007,0.719,0.344,0.593,0.557,�k�k��,6.7,��
2022/07/20,11:30,0.594,0.846,0.540,1.006,0.718,0.343,0.593,0.558,�k�k��,6.0,��
2022/07/20,11:40,0.591,0.846,0.541,1.007,0.718,0.344,0.592,0.558,�k,4.1,��
2022/07/20,11:50,0.595,0.848,0.542,1.008,0.720,0.346,0.593,0.557,�k,3.9,��
2022/07/20,12:00,0.596,0.846,0.542,1.009,0.719,0.344,0.592,0.558,�k�k��,3.8,��
2022/07/20,12:10,0.596,0.846,0.542,1.011,0.717,0.346,0.592,0.557,�k�k��,4.5,��
2022/07/20,12:20,0.595,0.849,0.539,1.010,0.719,0.343,0.593,0.556,�k��,1.7,��
2022/07/20,12:30,0.597,0.850,0.542,1.008,0.721,0.345,0.592,0.558,���k��,3.6,��
2022/07/20,12:40,0.596,0.846,0.543,1.009,0.720,0.344,0.593,0.558,�k��,3.8,��
2022/07/20,12:50,0.596,0.849,0.543,1.010,0.720,0.345,0.592,0.558,�k�k��,3.2,��
2022/07/20,13:00,0.598,0.851,0.543,1.009,0.719,0.343,0.592,0.559,�k,1.4,��
2022/07/20,13:10,0.599,0.850,0.544,1.014,0.720,0.344,0.593,0.557,���k��,3.2,��
2022/07/20,13:20,0.598,0.849,0.543,1.009,0.721,0.346,0.592,0.559,��,3.6,��
2022/07/20,13:30,0.596,0.850,0.543,1.009,0.720,0.346,0.592,0.559,�k��,5.6,��
2022/07/20,13:40,0.598,0.849,0.545,1.012,0.720,0.346,0.594,0.557,�k��,9.5,��
2022/07/20,13:50,0.599,0.848,0.545,1.012,0.721,0.344,0.593,0.560,�k��,9.3,��
2022/07/20,14:00,0.600,0.852,0.546,1.012,0.721,0.345,0.592,0.558,�k��,7.2,��
2022/07/20,14:10,0.599,0.853,0.548,1.014,0.722,0.347,0.592,0.558,�k�k��,7.4,��
2022/07/20,14:20,0.601,0.852,0.547,1.013,0.722,0.346,0.594,0.561,�k��,7.7,��
2022/07/20,14:30,0.601,0.852,0.545,1.012,0.724,0.346,0.593,0.559,�k��,6.8,��
2022/07/20,14:40,0.600,0.851,0.547,1.012,0.725,0.346,0.595,0.561,�k��,7.1,��
2022/07/20,14:50,0.601,0.855,0.547,1.013,0.725,0.346,0.595,0.561,�k��,4.9,��
2022/07/20,15:00,0.602,0.853,0.548,1.013,0.724,0.346,0.596,0.560,�k��,6.1,��
2022/07/20,15:10,0.601,0.851,0.547,1.015,0.725,0.348,0.595,0.562,�k��,5.7,��
2022/07/20,15:20,0.602,0.854,0.548,1.013,0.727,0.346,0.597,0.562,�k��,5.2,��
2022/07/20,15:30,0.602,0.841,0.548,1.016,0.725,0.346,0.597,0.561,���k��,4.7,��
2022/07/20,15:40,0.601,0.845,0.547,1.018,0.726,0.347,0.597,0.558,���k��,4.3,��
2022/07/20,15:50,0.603,0.851,0.546,1.018,0.725,0.347,0.594,0.560,�k��,4.7,��
2022/07/20,16:00,0.600,0.850,0.547,1.018,0.724,0.346,0.595,0.560,�k��,4.6,��
2022/07/20,16:10,0.600,0.851,0.546,1.019,0.722,0.346,0.595,0.559,�k��,7.2,��
2022/07/20,16:20,0.600,0.850,0.545,1.017,0.723,0.346,0.593,0.559,�k��,5.8,��
2022/07/20,16:30,0.598,0.850,0.544,1.020,0.724,0.346,0.596,0.559,�k�k��,5.8,��
2022/07/20,16:40,0.600,0.849,0.547,1.020,0.725,0.346,0.594,0.560,�k��,5.8,��
2022/07/20,16:50,0.599,0.850,0.546,1.017,0.724,0.347,0.594,0.559,�k��,7.6,��
2022/07/20,17:00,0.601,0.851,0.544,1.020,0.724,0.346,0.594,0.560,�k��,5.4,��
2022/07/20,17:10,0.600,0.852,0.545,1.019,0.725,0.345,0.595,0.560,���k��,5.0,��
2022/07/20,17:20,0.601,0.852,0.545,1.018,0.726,0.345,0.595,0.558,���k��,5.1,��
2022/07/20,17:30,0.599,0.851,0.547,1.019,0.725,0.346,0.595,0.558,���k��,6.5,��
2022/07/20,17:40,0.601,0.852,0.548,1.019,0.725,0.346,0.594,0.559,���k��,5.3,��
2022/07/20,17:50,0.600,0.851,0.546,1.019,0.724,0.348,0.595,0.561,�k��,5.8,��
2022/07/20,18:00,0.601,0.852,0.544,1.018,0.725,0.346,0.594,0.559,���k��,6.3,��
2022/07/20,18:10,0.600,0.850,0.545,1.019,0.724,0.346,0.594,0.559,�k��,6.8,��
2022/07/20,18:20,0.601,0.851,0.545,1.020,0.723,0.347,0.593,0.558,�k��,7.1,��
2022/07/20,18:30,0.601,0.851,0.545,1.018,0.726,0.345,0.596,0.558,�k��,7.0,��
2022/07/20,18:40,0.602,0.852,0.544,1.019,0.724,0.345,0.594,0.558,�k��,5.0,��
2022/07/20,18:50,0.601,0.852,0.544,1.020,0.722,0.345,0.594,0.559,�k�k��,3.0,��
2022/07/20,19:00,0.601,0.850,0.545,1.020,0.724,0.346,0.593,0.560,�k�k��,2.6,��
2022/07/20,19:10,0.600,0.851,0.544,1.019,0.724,0.346,0.592,0.558,�k��,2.9,��
2022/07/20,19:20,0.599,0.852,0.546,1.020,0.723,0.345,0.594,0.558,�k�k��,3.0,��
2022/07/20,19:30,0.597,0.852,0.543,1.020,0.724,0.345,0.593,0.557,�k�k��,4.1,��
2022/07/20,19:40,0.599,0.851,0.544,1.019,0.725,0.343,0.593,0.559,�k��,4.4,��
2022/07/20,19:50,0.598,0.850,0.542,1.017,0.726,0.342,0.593,0.559,�k��,5.1,��
2022/07/20,20:00,0.600,0.853,0.545,1.018,0.723,0.346,0.593,0.559,�k��,4.3,��
2022/07/20,20:10,0.597,0.853,0.543,1.015,0.726,0.344,0.593,0.560,�k��,3.5,��
2022/07/20,20:20,0.596,0.852,0.544,1.017,0.725,0.344,0.591,0.559,�k�k��,3.1,��
2022/07/20,20:30,0.597,0.852,0.543,1.020,0.724,0.344,0.592,0.557,�k��,3.0,��
2022/07/20,20:40,0.599,0.853,0.542,1.018,0.724,0.344,0.592,0.557,�k�k��,3.0,��
2022/07/20,20:50,0.597,0.852,0.543,1.018,0.726,0.344,0.593,0.558,�k�k��,2.3,��
2022/07/20,21:00,0.598,0.854,0.544,1.019,0.725,0.344,0.592,0.557,�k��,2.3,��
2022/07/20,21:10,0.599,0.854,0.545,1.018,0.725,0.344,0.593,0.560,�k��,2.5,��
2022/07/20,21:20,0.596,0.852,0.544,1.022,0.725,0.343,0.592,0.558,�k�k��,2.6,��
2022/07/20,21:30,0.599,0.853,0.544,1.022,0.724,0.345,0.592,0.558,�k�k��,1.7,��
2022/07/20,21:40,0.594,0.851,0.543,1.020,0.724,0.344,0.593,0.558,�k�k��,1.9,��
2022/07/20,21:50,0.599,0.854,0.545,1.019,0.726,0.343,0.593,0.557,�k�k��,0.6,��
2022/07/20,22:00,0.596,0.852,0.544,1.021,0.724,0.343,0.594,0.558,�k�k��,1.4,��
2022/07/20,22:10,0.599,0.852,0.544,1.021,0.725,0.345,0.592,0.559,�k�k��,1.4,��
2022/07/20,22:20,0.597,0.852,0.545,1.019,0.725,0.345,0.594,0.559,-,CALM,��
2022/07/20,22:30,0.600,0.854,0.544,1.020,0.724,0.343,0.594,0.559,-,CALM,��
2022/07/20,22:40,0.596,0.854,0.547,1.020,0.725,0.344,0.593,0.559,�k�k��,0.6,��
2022/07/20,22:50,0.597,0.854,0.547,1.021,0.725,0.343,0.595,0.558,�k,1.1,��
2022/07/20,23:00,0.599,0.853,0.545,1.022,0.724,0.344,0.591,0.558,�k,1.2,��
2022/07/20,23:10,0.597,0.852,0.545,1.019,0.726,0.344,0.592,0.559,�k,1.5,��
2022/07/20,23:20,0.597,0.852,0.545,1.021,0.726,0.344,0.592,0.560,�k�k��,1.7,��
2022/07/20,23:30,0.598,0.854,0.545,1.019,0.724,0.344,0.592,0.558,�k��,1.2,��
2022/07/20,23:40,0.595,0.852,0.545,1.020,0.724,0.344,0.592,0.557,�k��,1.5,��
2022/07/20,23:50,0.599,0.852,0.544,1.019,0.723,0.344,0.593,0.558,�k��,1.5,��
